{"data":{"norad_id":63499,"epoch":"2026-05-24T23:34:33.229056Z","epoch_age_seconds":76710,"freshness":"FRESH","line1":"1 63499U 25071G   26144.98232904  .00022692  00000+0  74070-3 0  9991","line2":"2 63499  53.1591 145.3434 0001281  83.5435 276.5712 15.31703254 64439","mean_motion":15.31703254,"eccentricity":0.0001281,"inclination_deg":53.1591,"raan_deg":145.3434,"arg_perigee_deg":83.5435,"mean_anomaly_deg":276.5712,"bstar":0.0007407,"rev_number":6443,"period_min":94.012988236428,"perigee_km":469.85295533762,"apogee_km":471.60763513866,"semimajor_km":6848.8672952381,"source":"CELESTRAK","updated_at":"2026-05-25T13:38:20.012767Z"}}